Погода в Димитровграде

Сербия     43°01′05″N   22°46′48″E
темп.,
°C
ветер,
м/с
пор.,
м/с
влажн.,
%
обл.,
%
осадки,
мм/ч
давл.,
гПа
погр.,
м
11 мая, вт
вт1123:00+9юв33795 0.0 102032
02:00+7юв33805 0.0 102032
05:00+6юв33825 0.0 102032
08:00+12юв23709 0.0 1018224
11:00+18юв33615 0.0 1016608
14:00+21юв33560 0.0 1014928
17:00+21юв23540 0.0 1012984
20:00+14юв33830 0.0 101326
12 мая, ср
ср1223:00+10юв33895 0.0 101342
02:00+8юв348997 0.0 101354
05:00+8юв33887 0.0 101246
08:00+13юв348249 0.0 1009290
11:00+18вюв227481 0.7 1008715
14:00+18юв127690 7.1 1006275
17:00+18св117299 7.7 1005109
20:00+12зюз61389100 14.6 1007728
13 мая, чт
чт1323:00+9ююв239684 6.3 100861
02:00+8зюз019535 6.4 100812
05:00+8всв01935 0.0 100811
08:00+12з11799 0.0 1008301
11:00+17сз2452100 0.0 10071666
14:00+16ссз1264100 0.2 1006600
17:00+13с2282100 1.6 1006149
20:00+11ссз2388100 2.8 100762
14 мая, пт
пт1423:00+8з118613 0.0 100911
02:00+7юз11894 0.0 101010
05:00+6ююв119042 0.0 101111
08:00+12з127858 0.0 1011276
11:00+16з475527 0.7 10101856
14:00+16з585996 0.9 10101412
17:00+17з69596 0.1 10101531
20:00+11з2371100 0.2 101226
15 мая, сб
сб1523:00+8зсз1172100 0.0 101411
02:00+8ююв227195 0.0 101418
05:00+7ююв227089 0.0 101320
08:00+12юв3573100 0.0 1011287
11:00+16юв4562100 0.1 1009959
14:00+13вюв2486100 2.1 1008210
17:00+12юз138893 1.3 1006114
20:00+10зсз228776 2.8 100614